Date,TemperatureHighF,TemperatureAvgF,TemperatureLowF,DewpointHighF,DewpointAvgF,DewpointLowF,HumidityHigh,HumidityAvg,HumidityLow,PressureMaxIn,PressureMinIn,WindSpeedMaxMPH,WindSpeedAvgMPH,GustSpeedMaxMPH,PrecipitationSumIn
2013-2-1,53,35,20,25,20,12,78,58,22,30.68,30.55,5,1,6,0.02
2013-2-2,56,40,26,25,20,13,78,50,19,30.69,30.56,5,1,10,0.02
2013-2-3,46,38,32,31,28,23,82,67,49,30.57,30.31,6,0,8,0.00
2013-2-4,51,38,28,29,25,19,91,64,32,30.42,30.33,5,1,11,0.00
2013-2-5,56,38,25,24,19,15,83,53,22,30.43,30.29,6,1,8,0.00
2013-2-6,49,35,26,34,28,23,92,78,49,30.42,30.26,6,1,12,0.04
2013-2-7,50,36,25,33,26,23,92,71,36,30.49,30.30,6,0,8,0.02
2013-2-8,40,34,27,30,24,11,90,67,44,30.30,30.02,9,2,25,0.02
2013-2-9,27,24,21,22,21,18,91,88,72,30.38,29.94,8,2,13,0.00
2013-2-10,26,23,13,24,21,9,92,90,86,30.41,30.29,5,1,11,0.00
2013-2-11,29,16,5,22,12,1,91,84,68,30.68,30.41,3,0,10,0.05
2013-2-12,36,19,2,23,12,-2,88,76,53,30.82,30.68,4,1,10,0.32
2013-2-13,44,30,9,20,15,4,84,56,38,30.77,30.57,6,1,12,0.15
2013-2-14,44,31,15,22,17,10,82,58,36,30.60,30.52,11,2,19,0.04
2013-2-15,49,37,30,19,14,6,61,41,20,30.70,30.60,8,2,20,0.04
2013-2-16,57,40,27,20,8,-2,61,32,9,30.71,30.41,6,1,10,0.00
2013-2-17,51,34,17,17,13,10,77,46,22,30.40,30.16,6,1,18,0.00
2013-2-18,50,32,19,18,14,11,78,53,22,30.45,30.32,6,1,9,0.00
2013-2-19,45,33,20,23,15,11,81,52,25,30.35,29.94,9,2,19,0.00
2013-2-20,32,26,21,25,22,17,91,85,57,30.21,29.85,9,1,12,0.00
2013-2-21,28,24,22,25,22,19,92,91,89,30.42,30.22,3,0,5,0.05
2013-2-22,35,20,2,25,15,-2,91,80,55,30.64,30.41,5,1,8,0.26
2013-2-23,41,26,10,25,17,6,87,71,50,30.64,30.24,6,1,13,0.18
2013-2-24,31,25,18,21,10,1,85,56,32,30.50,30.20,11,2,21,0.18
2013-2-25,44,30,18,15,10,6,76,46,24,30.62,30.41,11,1,15,0.01
2013-2-26,43,27,13,13,5,-2,89,47,17,30.56,30.38,10,2,20,0.01
2013-2-27,40,28,19,8,2,-4,49,34,21,30.68,30.57,15,2,16,0.00
2013-2-28,48,34,25,10,1,-4,45,26,13,30.78,30.66,10,2,20,0.00